Sioux Gateway Airport
Saturday 10:52 PM
Temperature35° (50°/19°)
Dew Point27°
Feels Like30°
Relative Humidity72
%
Visibility10
mi
Pressure1019.3
mb
Wind DirectionSSE
150°
Wind Speed6
mph
Precipitation Today0.00"

Last 30 Observations

Time PresWx Temp DP Feels RH% Vsby Pressure Ceiling Direction Speed 1h Precip
10:52 PM 35° 27° 30°72
%
10
mi
1019.3
mb
SSE
150°
6
mph
0.00"
9:52 PM 36° 27° 32°70
%
10
mi
1019.7
mb
SE
140°
5
mph
0.00"
8:52 PM 38° 27° 32°64
%
10
mi
1019.3
mb
SE
130°
8
mph
0.00"
7:52 PM 45° 24° 40°44
%
10
mi
1019.0
mb
SE
140°
10
mph
0.00"
6:52 PM 49° 24° 44°37
%
10
mi
1019.0
mb
SSE
160°
13
mph
0.00"
5:52 PM 49° 24° 45°37
%
10
mi
1019.3
mb
SSE
150°
10
mph
(G21)
0.00"
4:52 PM 49° 25° 44°39
%
10
mi
1019.7
mb
SE
140°
11
mph
0.00"
3:52 PM 48° 27° 43°44
%
10
mi
1020.3
mb
SSE
150°
11
mph
0.00"
2:52 PM 44° 28° 39°53
%
10
mi
1022.0
mb
ESE
110°
10
mph
0.00"
1:52 PM 41° 27° 36°57
%
10
mi
1023.0
mb
SE
140°
8
mph
0.00"
12:52 PM 38° 27° 32°64
%
10
mi
1024.1
mb
SSE
160°
8
mph
0.00"
11:52 AM 35° 25° 30°66
%
10
mi
1024.7
mb
SE
140°
6
mph
0.00"
10:52 AM 33° 26° 75
%
10
mi
1025.4
mb
Calm 0.00"
9:52 AM 30° 24° 78
%
10
mi
1025.1
mb
Calm 0.00"
8:52 AM 27° 22° 23°81
%
10
mi
1025.7
mb
NNW
330°
3
mph
0.00"
7:52 AM 23° 21° 19°92
%
10
mi
1026.4
mb
SW
220°
3
mph
0.00"
6:52 AM 21° 19° 92
%
10
mi
1025.7
mb
Calm 0.00"
5:52 AM 22° 19° 16°88
%
10
mi
1025.4
mb
W
270°
5
mph
0.00"
4:52 AM 23° 19° 19°85
%
10
mi
1025.1
mb
NNW
340°
3
mph
0.00"
4:25 AM 23° 19° 19°85
%
10
mi
1025.1
mb
NNE
20°
3
mph
0.00"
3:52 AM 24° 20° 18°84
%
10
mi
1025.4
mb
1,300
ft
N
360°
5
mph
0.00"
2:52 AM 26° 21° 22°81
%
10
mi
1026.4
mb
1,400
ft
NW
310°
3
mph
0.00"
1:52 AM 26° 22° 17°84
%
10
mi
1026.4
mb
1,400
ft
NNW
330°
9
mph
0.00"
1:23 AM 27° 22° 19°81
%
10
mi
1026.1
mb
1,400
ft
N
350°
8
mph
0.00"
12:52 AM 27° 22° 17°81
%
10
mi
1026.1
mb
1,500
ft
N
350°
10
mph
0.00"
11:52 PM 27° 22° 17°81
%
10
mi
1025.7
mb
1,500
ft
NNW
340°
11
mph
0.00"
10:52 PM 27° 22° 19°81
%
10
mi
1026.1
mb
N
350°
8
mph
0.00"
9:52 PM 27° 22° 17°81
%
10
mi
1025.7
mb
1,700
ft
N
360°
11
mph
0.00"
8:52 PM 27° 22° 81
%
10
mi
1025.7
mb
1,800
ft
0.00"
7:52 PM 28° 22° 17°78
%
10
mi
1025.4
mb
1,900
ft
N
350°
13
mph
0.00"